Location: Bottens
(46.6171°N, 6.6605°E)
Time: 01:50:15
(UTC+00:00)

NOSS 2-2 (D) - Pass Details

Date: 20 June 2021
Orbit: 453 x 1754 km, 63.3° (Epoch: 01 August)

Event Time Altitude Azimuth Distance (km) Brightness Sun altitude
Exits shadow 01:31:04 32° 199° (SSW) 795 3.6 -15.2°
Maximum altitude 01:32:27 66° 126° (SE) 506 3.0 -15.1°
Drops below altitude 10° 01:36:05 10° 44° (NE) 1,714 7.1 -14.8°
Sets 01:38:25 0° 42° (NE) 2,713 8.6 -14.6°
